M1DJR Weather Reports


time (UTC)temp
C
wind
direction
speed
KPH
gust
KPH
rain 1hr
cm
rain 24hr
cm
rain mn
cm
humidity
%
barometer
mb
20260510234222 6 0.0 0.0 0.00 0.00 0.00 60 1012.8
20260510233221 6 0.0 0.0 0.00 0.00 0.00 59 1013.0
20260510232218 6 0.0 0.0 0.00 0.00 0.00 59 1013.0
20260510231217 6 0.0 0.0 0.00 0.00 0.00 58 1013.1
20260510230215 6 0.0 0.0 0.00 0.00 0.00 58 1013.2
20260510225213 6 0.0 0.0 0.00 0.00 0.00 58 1013.3
20260510224211 7 0.0 0.0 0.00 0.00 0.00 57 1013.4
20260510223209 7 0.0 0.0 0.00 0.00 0.00 56 1013.6
20260510222247 7 0.0 0.0 0.00 0.00 0.00 56 1013.7
20260510221205 7 0.0 0.0 0.00 0.00 0.00 55 1014.0
20260510220203 7 0.0 0.0 0.00 0.00 0.00 54 1014.1
20260510215201 7 0.0 0.0 0.00 0.00 0.00 53 1014.1
20260510214159 8 0.0 0.0 0.00 0.00 0.00 52 1014.1
20260510213156 8 0.0 0.0 0.00 0.00 0.00 51 1014.1
20260510212155 8 0.0 0.0 0.00 0.00 0.00 49 1014.1
20260510211153 8 0.0 0.0 0.00 0.00 0.00 49 1014.2
20260510210151 8 0.0 0.0 0.00 0.00 0.00 48 1014.1
20260510205148 8 0.0 0.0 0.00 0.00 0.00 47 1014.2
20260510204147 9 0.0 0.0 0.00 0.00 0.00 47 1014.3
20260510203145 9 0.0 0.0 0.00 0.00 0.00 46 1014.3
20260510202143 9 0.0 0.0 0.00 0.00 0.00 45 1014.3
20260510201140 10 0.0 0.0 0.00 0.00 0.00 44 1014.3
20260510200139 10 0.0 0.0 0.00 0.00 0.00 44 1014.5
20260510195137 10 0.0 0.0 0.00 0.00 0.00 43 1014.6
20260510194215 10 0.0 0.0 0.00 0.00 0.00 42 1014.6
20260510193133 11 0.0 0.0 0.00 0.00 0.00 41 1014.6
20260510192131 11 0.0 0.0 0.00 0.00 0.00 40 1014.8
20260510191129 11 0.0 0.0 0.00 0.00 0.00 40 1014.8
20260510190126 12 0.0 0.0 0.00 0.00 0.00 39 1014.9
20260510185125 12 0.0 0.0 0.00 0.00 0.00 39 1015.0
20260510184123 12 0.0 0.0 0.00 0.00 0.00 37 1015.1
20260510183121 12 0.0 0.0 0.00 0.00 0.00 37 1015.1
20260510182119 12 0.0 0.0 0.00 0.00 0.00 37 1015.2
20260510181117 12 0.0 0.0 0.00 0.00 0.00 37 1015.2
20260510180114 13 0.0 0.0 0.00 0.00 0.00 36 1015.3
20260510175113 13 0.0 0.0 0.00 0.00 0.00 36 1015.3
20260510174111 13 0.0 0.0 0.00 0.00 0.00 36 1015.4
20260510173110 13 0.0 0.0 0.00 0.00 0.00 35 1015.4
20260510172106 13 0.0 0.0 0.00 0.00 0.00 34 1015.4
20260510171105 14 0.0 0.0 0.00 0.00 0.00 34 1015.6
20260510165101 14 0.0 0.0 0.00 0.00 0.00 34 1015.7
20260510164139 14 0.0 0.0 0.00 0.00 0.00 34 1016.0
20260510163057 14 0.0 0.0 0.00 0.00 0.00 35 1016.1
20260510162055 14 0.0 0.0 0.00 0.00 0.00 35 1016.2
20260510161053 14 0.0 0.0 0.00 0.00 0.00 34 1016.5
20260510160051 14 0.0 0.0 0.00 0.00 0.00 33 1016.6
20260510155130 15 0.0 0.0 0.00 0.00 0.00 33 1016.6
20260510154046 15 0.0 0.0 0.00 0.00 0.00 33 1016.6
20260510153045 15 0.0 0.0 0.00 0.00 0.00 32 1016.7
20260510152122 16 0.0 0.0 0.00 0.00 0.00 32 1016.7
20260510151042 16 0.0 0.0 0.00 0.00 0.00 32 1016.8
20260510150119 16 0.0 0.0 0.00 0.00 0.00 32 1016.9
20260510145117 16 0.0 0.0 0.00 0.00 0.00 32 1017.0
20260510144036 16 0.0 0.0 0.00 0.00 0.00 32 1017.1
20260510143033 16 0.0 0.0 0.00 0.00 0.00 33 1017.2
20260510142031 16 0.0 0.0 0.00 0.00 0.00 31 1017.3
20260510141029 16 0.0 0.0 0.00 0.00 0.00 32 1017.5
20260510140026 16 0.0 0.0 0.00 0.00 0.00 33 1017.5
20260510135025 17 0.0 0.0 0.00 0.00 0.00 32 1017.6
20260510134022 17 0.0 0.0 0.00 0.00 0.00 32 1017.6
20260510133021 17 0.0 0.0 0.00 0.00 0.00 34 1017.6
20260510132018 16 0.0 0.0 0.00 0.00 0.00 36 1017.8
20260510131017 16 0.0 0.0 0.00 0.00 0.00 35 1017.9
20260510130015 16 0.0 0.0 0.00 0.00 0.00 35 1017.9
20260510125014 16 0.0 0.0 0.00 0.00 0.00 35 1018.0
20260510124051 15 0.0 0.0 0.00 0.00 0.00 37 1018.1
20260510123010 16 0.0 0.0 0.00 0.00 0.00 36 1018.3
20260510122007 16 0.0 0.0 0.00 0.00 0.00 37 1018.4
20260510121005 15 0.0 0.0 0.00 0.00 0.00 39 1018.3
20260510120003 15 0.0 0.0 0.00 0.00 0.00 40 1018.5
20260510115001 14 0.0 0.0 0.00 0.00 0.00 42 1018.6
20260510113958 13 0.0 0.0 0.00 0.00 0.00 43 1018.8
20260510112957 13 0.0 0.0 0.00 0.00 0.00 46 1019.0
20260510111954 12 0.0 0.0 0.00 0.00 0.00 48 1019.1
20260510110953 11 0.0 0.0 0.00 0.00 0.00 51 1019.2
20260510110032 11 0.0 0.0 0.00 0.00 0.00 51 1019.4
20260510104948 11 0.0 0.0 0.00 0.00 0.00 51 1019.5
20260510103947 11 0.0 0.0 0.00 0.00 0.00 53 1019.5
20260510102944 11 0.0 0.0 0.00 0.00 0.00 54 1019.5
20260510101943 11 0.0 0.0 0.00 0.00 0.00 54 1019.6
20260510100941 11 0.0 0.0 0.00 0.00 0.00 56 1019.7
20260510095939 11 0.0 0.0 0.00 0.00 0.00 56 1019.9
20260510095017 11 0.0 0.0 0.00 0.00 0.00 57 1020.0
20260510093935 10 0.0 0.0 0.00 0.00 0.00 59 1020.0
20260510093014 10 0.0 0.0 0.00 0.00 0.00 59 1020.2
20260510091931 10 0.0 0.0 0.00 0.00 0.00 60 1020.2
20260510090930 10 0.0 0.0 0.00 0.00 0.00 61 1020.2
20260510085927 9 0.0 0.0 0.00 0.00 0.00 62 1020.3
20260510084926 9 0.0 0.0 0.00 0.00 0.00 63 1020.4
20260510083922 9 0.0 0.0 0.00 0.00 0.00 63 1020.2
20260510082920 9 0.0 0.0 0.00 0.00 0.00 64 1020.3
20260510081959 8 0.0 0.0 0.00 0.00 0.00 65 1020.3
20260510080917 8 0.0 0.0 0.00 0.00 0.00 66 1020.3
20260510075915 8 0.0 0.0 0.00 0.00 0.00 68 1020.2
20260510074913 8 0.0 0.0 0.00 0.00 0.00 69 1020.3
20260510073911 8 0.0 0.0 0.00 0.00 0.00 69 1020.3
20260510072908 8 0.0 0.0 0.00 0.00 0.00 70 1020.2
20260510071907 7 0.0 0.0 0.00 0.00 0.00 71 1020.2
20260510070905 7 0.0 0.0 0.00 0.00 0.00 71 1020.3
20260510065942 7 0.0 0.0 0.00 0.00 0.00 72 1020.3
20260510064901 7 0.0 0.0 0.00 0.00 0.00 72 1020.3
20260510063858 7 0.0 0.0 0.00 0.00 0.00 71 1020.2
20260510062857 7 0.0 0.0 0.00 0.00 0.00 72 1020.1
20260510061854 7 0.0 0.0 0.00 0.00 0.00 72 1019.9
20260510060853 7 0.0 0.0 0.00 0.00 0.00 72 1019.9
20260510055850 7 0.0 0.0 0.00 0.00 0.00 72 1019.8
20260510054929 7 0.0 0.0 0.00 0.00 0.00 72 1019.7
20260510053846 7 0.0 0.0 0.00 0.00 0.00 72 1019.8
20260510052845 7 0.0 0.0 0.00 0.00 0.00 72 1019.8
20260510051923 7 0.0 0.0 0.00 0.00 0.00 72 1019.9
20260510050841 7 0.0 0.0 0.00 0.00 0.00 73 1019.9
20260510045918 7 0.0 0.0 0.00 0.00 0.00 73 1019.7
20260510044837 7 0.0 0.0 0.00 0.00 0.00 74 1019.7
20260510043915 7 0.0 0.0 0.00 0.00 0.00 74 1019.6
20260510042833 7 0.0 0.0 0.00 0.00 0.00 74 1019.5
20260510041831 7 0.0 0.0 0.00 0.00 0.00 75 1019.6
20260510040828 7 0.0 0.0 0.00 0.00 0.00 75 1019.9
20260510035907 7 0.0 0.0 0.00 0.00 0.00 75 1020.0
20260510034824 7 0.0 0.0 0.00 0.00 0.00 75 1020.1
20260510033823 7 0.0 0.0 0.00 0.00 0.00 76 1020.2
20260510032901 7 0.0 0.0 0.00 0.00 0.00 76 1020.1
20260510031820 7 0.0 0.0 0.00 0.00 0.00 76 1020.1
20260510030856 8 0.0 0.0 0.00 0.00 0.00 76 1020.2
20260510025815 8 0.0 0.0 0.00 0.00 0.00 76 1020.2
20260510024812 8 0.0 0.0 0.00 0.00 0.00 77 1020.4
20260510023851 8 0.0 0.0 0.00 0.00 0.00 77 1020.5
20260510022808 8 0.0 0.0 0.00 0.00 0.00 77 1020.5
20260510021807 8 0.0 0.0 0.00 0.00 0.00 77 1020.4
20260510020805 8 0.0 0.0 0.00 0.00 0.00 77 1020.2
20260510015803 8 0.0 0.0 0.00 0.00 0.00 77 1020.1
20260510014801 8 0.0 0.0 0.00 0.00 0.00 78 1019.9
20260510013759 8 0.0 0.0 0.00 0.00 0.00 78 1020.1
20260510012757 8 0.0 0.0 0.00 0.00 0.00 78 1020.1
20260510011754 8 0.0 0.0 0.00 0.00 0.00 78 1020.3
20260510010753 8 0.0 0.0 0.00 0.00 0.00 77 1020.3
20260510005751 8 0.0 0.0 0.00 0.00 0.00 78 1020.4
20260510004749 8 0.0 0.0 0.00 0.00 0.00 78 1020.3
20260510003747 8 0.0 0.0 0.00 0.00 0.00 78 1020.5
20260510002744 8 0.0 0.0 0.00 0.00 0.00 78 1020.5
20260510001743 8 0.0 0.0 0.00 0.00 0.00 78 1020.4
20260510000740 8 0.0 0.0 0.00 0.00 0.00 78 1020.4
20260509235819 8 0.0 0.0 0.00 0.00 0.00 78 1020.4